Showing default

IRIDIUM 115, 42806

Orbit data source: Space-Track

IRIDIUM 115, 42806 is a payload satellite owned by Iridium (US) in LEO that was launched on Sun, 25 Jun 2017 UTC via an FALCON 9 launch vehicle from the Air Force Western Test Range (AFWTR). Payloads include a variety of satellites, spacecraft, and rockets equipped with specific instruments for various scientific and technological missions. These include communications satellites like Starlink; space stations such as the ISS; scientific satellites like the Hubble; Earth observation satellites from companies like Planet Labs, Umbra, and HawkEye 360; GPS; miniature CubeSats for education and research; and military/defense satellites.

Loading next visibility...
IRIDIUM 115 details
Identifier
42806, 2017-039D
Orbit
LEO
Last TLE update7 hours ago
Origin
Flag of USIridium (US)
ManufacturerOATK SSG Gilbert
MissionOperational Commercial Communications
Bus & MotorELITEBUS, Unknown motor
Mass860 kg wet, 700 kg dry
Launch date (UTC)
2017-06-25 (8 years ago)
Launch vehicle
FALCON 9
Launch site
Air Force Western Test Range (AFWTR)
Object type
Payload
Rocket body
Debris
Shape & HBRTrap Box + 2 Pan, 9.4 m
Radar Cross Section14.423 m², Large (>1 m²)

Expand to show TLE details & history

TLE from 7 hours ago
0 IRIDIUM 115
1 42806U 17039D   24361.45791466  .00000370  00000-0  10404-3 0  9990
2 42806  86.4519 186.7802 0001597  83.9204 276.2179 14.43282819396706
Epoch: 2024-12-26T10:59Z
Definitive object data (Epoch: 2024-12-26T10:59:23.826Z)
Latitude-0.00002°
Longitude-73.5061°
Altitude750.614 km
Speed7.479 km/s
True Right ascension12h 27m 07s
True Declination0° 00' 00"
Sunlit
Object was in daylight at TLE epoch
Visualization TLE readout
Latitude83.00117°
Longitude-43.47092°
Altitude760.199 km
Speed7.482 km/s
Apparent Right ascension05h 56m 51s
Apparent Declination34° 43' 45"
Sunlit
Object is in daylight
Visualization observer readout
Local Sidereal Time17:24:24
Azimuth353.106° N
Elevation-14.98°
Doppler factor1
Orbital elements
Apogee altitude745.761 km
Perigee altitude743.486 km
Semi-major axis7,122.76 km
Eccentricity0.0001597
Inclination86.4519°
RAAN186.7802°
Arg. of periapsis83.9204°
True anomaly276.19971°
Mean anomaly276.2179°
Eccentric anomaly276.2088°
Mean motion3.61053 °/min
BSTAR0.00010404
Orbital period99.71 mins
Loading maneuver chart data...
Loading historical data...
Loading historical data...
Loading historical data...
Loading historical data...
Loading historical data...
Loading historical data...
Loading historical data...

IRIDIUM 115 Visibility forecast

Observer location: undefined°, undefined

Span
Click to sort rows by Start time (UTC) header in descending order
Start Az.
Max El. time (UTC)
Max El. Az.
Max El.
End time (UTC)
End Az.
8 mins2024-12-27 00:52:58.714Z354.02° N2024-12-27 00:56:58.714Z251.543° W44.402°2024-12-27 01:00:58.714Z184.473° SSW
5 mins2024-12-27 12:05:58.714Z114.906° SE2024-12-27 12:07:58.714Z85.23° E19.898°2024-12-27 12:10:58.714Z41.767° NE
7 mins2024-12-27 13:44:58.714Z219.486° SW2024-12-27 13:47:58.714Z277.134° WNW32.108°2024-12-27 13:51:58.714Z342.732° N
|